Beckley, WV

1:21 AM EDT on March 27, 2017 (GMT -0400)
Raleigh County Memorial

Weather History for KBKW - June, 2013

Change the Weather History Date:

Tuesday, June 11, 2013

  Actual Average Record
Temperature  
Mean Temperature 69 °F 66 °F  
Max Temperature 76 °F 76 °F 92 °F (1947)
Min Temperature 61 °F 57 °F 32 °F (1972)
Degree Days  
Heating Degree Days 0 2  
Month to date heating degree days 3 26  
Since 1 June heating degree days 3 26  
Since 1 July heating degree days 5271 5327  
Cooling Degree Days 4 3  
Month to date cooling degree days 32 27  
Year to date cooling degree days 99 68  
Since 1 June cooling degree days 32 27  
Growing Degree Days 18 (Base 50)    
Moisture  
Dew Point 62 °F    
Average Humidity 82    
Maximum Humidity 100    
Minimum Humidity 64    
Precipitation  
Precipitation 0.01 in 0.13 in 1.25 in (1899)
Month to date precipitation 1.36 1.49  
Year to date precipitation 16.74 18.65  
Snow  
Snow 0.00 in - - ()
Month to date snowfall 0.0  
Since 1 September snowfall 72.0  
Snow Depth 0.00 in    
Sea Level Pressure  
Sea Level Pressure 29.96 in    
Wind  
Wind Speed 8 mph (West)    
Max Wind Speed 18 mph    
Max Gust Speed 23 mph    
Visibility 9 miles    
Events Rain    
T = Trace of Precipitation, MM = Missing Value Source: NWS Daily Summary

Daily Weather History Graph

Daily Weather History Graph

Search for Another Location

Airport or City:

Trip Planner

Search our weather history database for the weather conditions in past years. The results will help you decide how hot, cold, wet, or windy it might be!

Date:

Astronomy

Jun. 11, 2013 Rise Set
Actual Time 6:01 AM EDT 8:46 PM EDT
Civil Twilight 5:30 AM EDT 9:17 PM EDT
Nautical Twilight 4:51 AM EDT 9:56 PM EDT
Astronomical Twilight 4:07 AM EDT 10:41 PM EDT
Moon 8:41 AM EDT (6/11) 10:51 PM EDT (6/11)
Length of Visible Light 15h 47m
Length of Day
14h 44m
Waxing Crescent, 8% of the Moon is Illuminated
Jun 11
Waxing Crescent
Jun 16
First Quarter
Jun 23
Full
Jun 30
Last Quarter
Jul 8
New

Hourly Weather History & Observations

Time (EDT) Temp. Dew Point Humidity Pressure Visibility Wind Dir Wind Speed Gust Speed Precip Events Conditions
12:51 AM 63.0 °F 62.1 °F 97% 29.88 in 10.0 mi SSW 4.6 mph - 0.02 in Rain Light Rain
1:51 AM 62.1 °F 61.0 °F 96% 29.91 in 10.0 mi SSW 9.2 mph - 0.00 in   Mostly Cloudy
2:04 AM 62.6 °F 60.8 °F 94% 29.96 in 10.0 mi SW 8.1 mph - N/A   Mostly Cloudy
2:38 AM 62.6 °F 60.8 °F 94% 29.96 in 10.0 mi SW 5.8 mph - N/A   Overcast
2:51 AM 62.1 °F 61.0 °F 96% 29.88 in 10.0 mi WSW 6.9 mph - N/A   Overcast
3:07 AM 62.6 °F 60.8 °F 94% 29.95 in 10.0 mi WSW 8.1 mph - N/A   Overcast
3:21 AM 62.6 °F 60.8 °F 94% 29.95 in 8.0 mi West 6.9 mph - 0.00 in Rain Light Rain
3:28 AM 62.6 °F 60.8 °F 94% 29.96 in 6.0 mi West 6.9 mph - 0.00 in Rain Light Rain
3:51 AM 61.0 °F 61.0 °F 100% 29.89 in 10.0 mi West 6.9 mph - 0.01 in   Overcast
4:05 AM 60.8 °F 60.8 °F 100% 29.96 in 9.0 mi WSW 6.9 mph - 0.00 in Rain Light Rain
4:49 AM 62.6 °F 60.8 °F 94% 29.97 in 10.0 mi West 9.2 mph 16.1 mph 0.00 in   Overcast
4:51 AM 62.1 °F 61.0 °F 96% 29.89 in 10.0 mi West 9.2 mph - 0.00 in   Overcast
5:51 AM 62.1 °F 61.0 °F 96% 29.90 in 9.0 mi West 5.8 mph - 0.00 in Rain Light Rain
6:51 AM 61.0 °F 61.0 °F 100% 29.92 in 6.0 mi West 4.6 mph - 0.00 in   Overcast
6:58 AM 60.8 °F 60.8 °F 100% 30.00 in 6.0 mi WSW 5.8 mph - N/A   Overcast
7:21 AM 60.8 °F 60.8 °F 100% 30.01 in 4.0 mi West 5.8 mph - 0.00 in Rain Light Rain
7:40 AM 60.8 °F 60.8 °F 100% 30.02 in 6.0 mi West 6.9 mph - 0.00 in   Overcast
7:51 AM 62.1 °F 61.0 °F 96% 29.95 in 7.0 mi West 5.8 mph - 0.00 in   Overcast
8:33 AM 62.6 °F 60.8 °F 94% 30.02 in 8.0 mi West 6.9 mph - N/A   Overcast
8:51 AM 63.0 °F 61.0 °F 93% 29.96 in 9.0 mi West 9.2 mph - N/A   Overcast
9:33 AM 62.6 °F 60.8 °F 94% 30.03 in 9.0 mi West 11.5 mph 17.3 mph 0.00 in   Overcast
9:51 AM 64.0 °F 62.1 °F 93% 29.97 in 9.0 mi WNW 8.1 mph - 0.00 in   Overcast
10:20 AM 62.6 °F 60.8 °F 94% 30.04 in 10.0 mi West 9.2 mph - N/A   Overcast
10:51 AM 64.9 °F 62.1 °F 90% 29.97 in 10.0 mi West 8.1 mph - N/A   Overcast
11:42 AM 68.0 °F 62.6 °F 83% 30.04 in 10.0 mi West 8.1 mph - N/A   Overcast
11:51 AM 68.0 °F 62.1 °F 81% 29.96 in 10.0 mi WSW 10.4 mph 16.1 mph N/A   Overcast
12:47 PM 68.0 °F 62.6 °F 83% 30.03 in 10.0 mi WNW 10.4 mph 20.7 mph N/A   Overcast
12:51 PM 68.0 °F 62.1 °F 81% 29.96 in 10.0 mi WNW 11.5 mph 20.7 mph N/A   Overcast
1:51 PM 71.1 °F 62.1 °F 73% 29.96 in 10.0 mi West 12.7 mph - N/A   Mostly Cloudy
2:09 PM 69.8 °F 60.8 °F 73% 30.05 in 10.0 mi West 16.1 mph 23.0 mph N/A   Overcast
2:51 PM 73.0 °F 63.0 °F 71% 29.96 in 10.0 mi West 11.5 mph 19.6 mph N/A   Mostly Cloudy
3:51 PM 73.9 °F 62.1 °F 66% 29.95 in 10.0 mi WNW 10.4 mph - N/A   Scattered Clouds
4:51 PM 73.9 °F 61.0 °F 64% 29.94 in 10.0 mi WNW 10.4 mph - N/A   Mostly Cloudy
5:51 PM 73.9 °F 63.0 °F 68% 29.95 in 10.0 mi WNW 10.4 mph - N/A   Mostly Cloudy
6:51 PM 73.9 °F 63.0 °F 68% 29.95 in 10.0 mi West 9.2 mph 16.1 mph N/A   Clear
7:51 PM 72.0 °F 63.0 °F 73% 29.95 in 10.0 mi WNW 4.6 mph - N/A   Scattered Clouds
8:51 PM 69.1 °F 64.0 °F 84% 29.98 in 10.0 mi West 9.2 mph - N/A   Clear
9:51 PM 66.9 °F 64.0 °F 90% 29.99 in 10.0 mi SW 3.5 mph - N/A   Clear
10:51 PM 66.0 °F 64.0 °F 93% 29.99 in 10.0 mi SW 5.8 mph - N/A   Clear
11:51 PM 66.0 °F 63.0 °F 90% 29.96 in 10.0 mi SW 4.6 mph - N/A   Clear